This demonstration page uses our WeatherBlox Daily Observations layout. Learn more.

Left ArrowRight Arrow

36.17497, -115.13722

Hourly Observations for August 16, 2022

Temp ( °F °C ) Dew Point ( °F °C ) Humidity (%) Winds ( mph kmh ) Pressure ( in mb ) Visibility ( mi km ) Precip ( " mm )
12:38 am 00:38 Clear 85 29.4 58 14.4 40 40 N 12 19 29.73 1007 10 16 0.00 0.00
12:53 am 00:53 Clear 85 29.4 57 13.9 39 39 N 13 20 29.84 1010 10 16 0.00 0.00
1:53 am 01:53 Clear 85 29.4 57 13.9 39 39 Calm 29.82 1010 10 16 0.00 0.00
2:53 am 02:53 Clear 85 29.4 58 14.4 40 40 WNW 6 9 29.83 1010 10 16 0.00 0.00
3:53 am 03:53 Clear 84 28.9 59 15 43 43 NW 6 9 29.84 1011 10 16 0.00 0.00
4:53 am 04:53 Clear 82 27.8 61 16.1 49 49 NW 7 11 29.84 1011 10 16 0.00 0.00
5:53 am 05:53 Clear 81 27.2 61 16.1 51 51 NNW 6 9 29.85 1011 10 16 0.00 0.00
6:53 am 06:53 Sunny 82 27.8 60 15.6 47 47 NW 6 9 29.86 1011 10 16 0.00 0.00
7:53 am 07:53 Sunny 85 29.4 58 14.4 40 40 N 3 6 29.87 1012 10 16 0.00 0.00
8:53 am 08:53 Sunny 87 30.6 58 14.4 37 37 NNW 5 7 29.88 1012 10 16 0.00 0.00
9:53 am 09:53 Sunny 91 32.8 58 14.4 33 33 VRB 3 6 29.88 1012 10 16 0.00 0.00
10:53 am 10:53 Sunny 93 33.9 57 13.9 30 30 E 3 6 29.88 1012 10 16 0.00 0.00
11:53 am 11:53 Sunny 96 35.6 57 13.9 27 27 ENE 6 9 29.86 1011 10 16 0.00 0.00
12:53 pm 12:53 Sunny 97 36.1 55 12.8 25 25 Calm 29.85 1011 10 16 0.00 0.00
1:53 pm 13:53 Sunny 99 37.2 55 12.8 23 23 ESE 8 13 29.82 1010 10 16 0.00 0.00
2:53 pm 14:53 Sunny 100 37.8 55 12.8 23 23 undefined N/A 29.79 1009 10 16 0.00 0.00
3:53 pm 15:53 Sunny 101 38.3 55 12.8 22 22 VRB 3 6 29.77 1008 10 16 0.00 0.00
4:53 pm 16:53 Sunny 100 37.8 54 12.2 22 22 SW 6 9 29.76 1008 10 16 0.00 0.00
5:53 pm 17:53 Sunny 101 38.3 54 12.2 21 21 VRB 6 9 29.75 1008 10 16 0.00 0.00
6:53 pm 18:53 Sunny 100 37.8 54 12.2 22 22 S 6 9 29.75 1008 10 16 0.00 0.00
7:53 pm 19:53 Clear 99 37.2 54 12.2 22 22 ENE 6 9 29.77 1008 10 16 0.00 0.00
8:53 pm 20:53 Clear 97 36.1 59 15 29 29 NE 14 22 29.79 1009 10 16 0.00 0.00
9:53 pm 21:53 Clear 94 34.4 59 15 31 31 ENE 13 20 29.81 1010 10 16 0.00 0.00
11:00 pm 23:00 Partly Cloudy 92 33.3 59 15 33 33 WNW 20 31 29.70 1006 10 16 0.00 0.00
11:53 pm 23:53 Clear 89 31.7 59 15 36 36 NNW 12 19 29.83 1010 10 16 0.00 0.00

Powered by AerisWeather